Location: Acheville
(50.3840°N, 2.8827°E)
Time: 03:54:48
(UTC+00:00)

Cosmos 2058 - Pass Details

Date: 24 October 2021
Orbit: 561 x 582 km, 82.5° (Epoch: 05 December)

Event Time Altitude Azimuth Distance (km) Brightness Sun altitude
Rises 18:54:32 0° 354° (N) 2,813 6.6 -22.3°
Reaches altitude 10° 18:56:48 10° 360° (N) 1,911 5.7 -22.6°
Enters shadow 18:58:50 26° 14° (NNE) 1,172 4.4 -22.9°
